Kuiper-00116

operational
NORAD ID: 65153 Int'l Des: 2025-171 Owner: KUIP Country: US Constellation: kuiper
LEOCIRCULAR

Über Kuiper-00116

Beschreibung wird geladen...

Live-Position

3D-Globus wird geladen...

Nächste Überflüge

Höhenverlauf

Altitude vs Time

uPlot chart will show altitude changes over time

Zweizeiliger Elementsatz

1 65153U 25171X 25304.00002315 .00005021 00000-0 62261-3 0 9999
2 65153 51.8997 26.5281 0009463 24.9228 192.9831 14.84094105 5705
Epoch: 31. Okt. 2025 • Age: 19 hours

Aktueller Status

Höhe 626.2 km
Geschwindigkeit 7.54 km/s
Subsatellitenpunkt -12.87°S, 116.59°W
Startdatum 11. Aug. 2025
Alter 0.2 years
Typ internet

Technische Details

Klassifizierung Payload
Masse 490.00 kg
Trockenmasse 490.00 kg
Gesamtmasse 490.00 kg
Länge 1.80 m
Durchmesser 0.70 m
Spannweite 5.00 m
Form Box + 2 pan
Hersteller KUIP
Bus-Typ Kuiper
Phasenstatus In Orbit
Besitzer/Staat KUIP/US

Große Konstellationen

Loading constellations...